www.pogodaiklimat.ru

Погода и климат >> Архив погоды >> Россия >> Ямало-Ненецкий АО >> Харп


ПОГОДА в Харпе

  • Прогноз погоды в Харпе
  • Монитор погоды в Харпе

АРХИВ ПОГОДЫ в Харпе

Время (UTC), дата Ветер
(напр.,м/с)
 
Видим.   Явления Облачность Т
(С)
Тd
(С)
f
(%)
Тe
(С)
Тes
(С)
Комфортность P
(гПа)
Po
(гПа)
Тmin
(С)
Tmax
(С)
R
(мм)
R24
(мм)
S
(см)
06 19.08 С 3 н/о н/о +14.6 +7.1 61 +14 +14 1028.7 1019.5
09 19.08 С 3 н/о н/о +17.1 +7.9 55 +17 +17 1028.4 1019.3
12 19.08 С 2 н/о н/о +17.6 +8.6 56 +18 +18 1028.3 1019.2
15 19.08 СЗ 1 н/о н/о +15.6 +9.7 68 +16 +16 1028.2 1019.1 +18.4
18 19.08 З 1 н/о н/о +7.6 +6.2 91 +7 +7 1029.0 1019.6
21 19.08 ЮЗ 1 н/о н/о +4.7 +3.6 93 +3 +3 1028.9 1019.4
00 20.08 З 1 н/о н/о +6.7 +5.5 92 +6 +6 1028.6 1019.2
03 20.08 С 1 н/о н/о +12.5 +9.2 80 +13 +13 1028.1 1018.9 +4.7
09 20.08 ЮВ 3 н/о н/о +20.4 +11.2 55 +22 +22 комфорт 1026.2 1017.2
12 20.08 ЮВ 2 н/о н/о +20.3 +11.9 58 +23 +23 комфорт 1025.9 1016.9
15 20.08 штиль 0 н/о н/о +16.1 +12.7 80 +16 +16 1026.0 1016.9 +20.6
18 20.08 ЮЗ 1 н/о н/о +8.4 +7.2 92 +8 +8 1026.9 1017.5
21 20.08 ЮЗ 1 н/о н/о +5.1 +4.1 93 +4 +4 1026.9 1017.4
03 21.08 штиль 0 н/о н/о +12.0 +9.3 84 +11 +11 1025.7 1016.4 +3.7
06 21.08 ЮЗ 2 н/о н/о +17.7 +10.1 61 +18 +18 1024.2 1015.2
09 21.08 Ю 3 н/о н/о +19.3 +8.8 51 +20 +20 1022.7 1013.7
12 21.08 Ю 2 н/о н/о +19.8 +9.3 51 +22 +22 комфорт 1021.1 1012.2
15 21.08 Ю 1 н/о н/о +15.6 +10.2 70 +16 +16 1020.2 1011.1 +20.3
18 21.08 штиль 0 н/о н/о +8.0 +6.7 91 +7 +7 1019.7 1010.4
21 21.08 Ю 1 н/о н/о +4.6 +3.5 93 +3 +3 1018.3 1008.8
00 22.08 ЮЗ 1 н/о н/о +3.6 +2.6 93 +2 +2 1017.0 1007.6
03 22.08 ЮВ 1 н/о н/о +11.1 +8.5 84 +11 +11 1015.3 1006.2 +3.4
06 22.08 Ю 2 н/о н/о +17.9 +10.5 62 +18 +18 1013.4 1004.5
09 22.08 ЮЗ 3 н/о н/о +16.6 +12.0 74 +16 +16 1012.9 1003.9
12 22.08 С 2 н/о н/о +14.8 +12.6 87 +14 +14 1013.3 1004.3
15 22.08 штиль 0 н/о н/о +13.5 +10.7 83 +13 +13 1012.9 1003.9 +20.0 1
18 22.08 С 4
{10}
н/о н/о +13.3 +9.3 77 +12 +12 1013.1 1004.0
21 22.08 З 4 н/о н/о +11.6 +8.0 79 +9 +9 1013.0 1003.8
00 23.08 С 2 н/о н/о +10.3 +7.6 83 +9 +9 1013.0 1003.8
03 23.08 В 1 н/о н/о +11.9 +8.4 79 +12 +12 1012.3 1003.2 +7.5 0.3
09 23.08 Ю 1 н/о н/о +16.6 +9.0 61 +18 +18 1009.4 1000.5
12 23.08 ЮВ 2 н/о н/о +15.9 +9.3 65 +16 +16 1008.3 999.3
15 23.08 штиль 0 н/о н/о +13.7 +9.5 76 +13 +13 1007.4 998.4 +17.2
18 23.08 СВ 2 н/о н/о +11.8 +8.7 81 +11 +11 1006.9 997.8
21 23.08 СВ 3 н/о н/о +12.2 +7.8 74 +11 +11 1006.6 997.5
00 24.08 СВ 4 н/о н/о +11.0 +7.0 76 +9 +9 1006.0 996.9
03 24.08 С 2 н/о н/о +12.5 +7.6 72 +12 +12 1006.7 997.6 +10.6
06 24.08 С 4 н/о н/о +13.1 +7.9 71 +11 +11 1007.7 998.7
09 24.08 С 4 н/о н/о +14.1 +7.1 63 +13 +13 1007.9 998.9
12 24.08 С 6
{11}
н/о н/о +14.1 +4.5 52 +12 +12 1008.6 999.5
15 24.08 С 5
{11}
н/о н/о +10.2 +1.9 56 +8 +8 1009.8 1000.6 +14.8
18 24.08 С 5
{11}
н/о н/о +7.0 +1.3 67 +3 +3 1010.5 1001.3
21 24.08 С 5
{12}
н/о н/о +5.7 +1.4 74 +1 +1 1011.2 1001.9
00 25.08 СЗ 3 н/о н/о +5.1 +1.4 77 +2 +2 1011.7 1002.4
03 25.08 С 5
{10}
н/о н/о +6.3 +1.2 70 +2 +2 1012.6 1003.2 +5.0

 

Местоположение метеостанции Харп (Ямало-Ненецкий АО, Россия): широта 66.80 долгота 65.78 высота над уровнем моря 76 м.

В архиве по умолчанию представлена погода в Харпе за последнюю неделю. Архивные данные за месяц целиком и за предыдущие месяцы, начиная с января 2011 года, Вы можете получить, выбрав интересующий диапазон дат из раскрывающегося списка и нажав кнопку "Ввод!".


*Определитесь, кто Вы:
робот инопланетянин человек

Внимание! Время в таблицах - всемирное. Для получения местного времени необходимо прибавить поправку, которая равна 5 ч.

Смотрите также архив погоды в соседних городах и на ближайших метеорологических станциях:

Погода в Салехарде (Ямало-Ненецкий АО, Россия) (49 км)
Погода в Елецкой (Коми, Россия) (80 км)
Погода в Белоярске (Ямало-Ненецкий АО, Россия) (103 км)
Погода в Питляре (Ямало-Ненецкий АО, Россия) (108 км)
Погода в Воркуте (Коми, Россия) (109 км)
Погода в Полуе (Ямало-Ненецкий АО, Россия) (155 км)
Погода в Мужах (Ямало-Ненецкий АО, Россия) (165 км)
Погода в Петруни (Коми, Россия) (225 км)
Погода в Харуте (Ненецкий АО, Россия) (274 км)
Погода в Усть-Каре (Ненецкий АО, Россия) (275 км)

Пояснения к столбцам:

Ветер - указаны скорость ветра в м/с - средняя за 10 мин, порывы в срок и между сроками (в фигурных скобках) и направление, откуда дует ветер: С - северный, СВ - северо-восточный, В - восточный, ЮВ - юго-восточный, Ю - южный, ЮЗ - юго-западный, З - западный, СЗ - северо-западный.
Видимость - горизонтальная дальность видимости в метрах или километрах. При видимости от 1 до 10 км при отсутствии осадков обычно наблюдается дымка, при ухудшении видимости до 1 км и менее - туман. В сухую погоду видимость может ухудшаться дымом, пылью или мглою.
Явления - указаны атмосферные явления, наблюдавшиеся в срок или в последний час перед сроком; фигурными скобками обозначены явления, наблюдавшиеся между сроками (за 1-3 часа до срока); квадратными скобками обозначены град или гололедные отложения с указанием их диаметра в мм.
Облачность - указаны через наклонную черту общая и нижняя облачность в баллах и высота нижней границы облаков в метрах; квадратными скобками обозначены формы облаков: Ci - перистые, Cs - перисто-слоистые, Cc - перисто-кучевые, Ac - высококучевые, As - высокослоистые, Sc - слоисто-кучевые, Ns - слоисто-дождевые, Cu - кучевые, Cb - кучево-дождевые. Подробнее классификацию облаков см. в Атласе облаков (PDF).
T - Температура воздуха - температура, измеренная на высоте 2 м над землей.
Td - Температура точки росы - температура, при понижении до которой содержащийся в воздухе водяной пар достигнет насыщения.
f - Относительная влажность воздуха - влажноcть воздуха, измеренная на высоте 2 м над землей.
Te - Эффективная температура - температура, которую ощущает одетый по сезону человек в тени. Характеристика душности погоды. При расчете учитывается влияние влажности воздуха и скорости ветра на теплоощущения человека.
Tes - Эффективная температура на солнце - температура, которую ощущает человек, с поправкой на солнечный нагрев. Характеристика знойности погоды. Зависит от высоты солнца над горизонтом, облачности и скорости ветра. Ночью, в пасмурную погоду, а также при ветре 12 м/с и более поправка равна нулю.
P - Атмосферное давление - приведенное к уровню моря атмосферное давление.
Po - Атмосферное давление - измеренное на уровне метеостанции атмосферное давление.
Tmin - Минимальная температура - минимум температуры воздуха на высоте 2 м над землей.
Tmax - Максимальная температура - максимум температуры воздуха на высоте 2 м над землей.
R - Количество осадков - Количество выпавших осадков за период времени, мм. При наведении курсора мыши на число - период времени, за который выпало указанное количество осадков.
R24 - Количество осадков - Количество выпавших осадков за 24 часа, мм.
S - Снежный покров - Высота снежного покрова, см. При наведении курсора мыши на число - состояние снежного покрова и степень покрытия местности в баллах.